Amarillo, TX

1:22 PM CDT on July 17, 2019 (GMT -0500)
Amarillo International

Weather History for KAMA - May, 2019

Change the Weather History Date:

Wednesday, May 15, 2019

  Actual Average Record
Temperature  
Mean Temperature 68 °F 65 °F  
Max Temperature 84 °F 79 °F 101 °F (1996)
Min Temperature 51 °F 52 °F 33 °F (1983)
Degree Days  
Heating Degree Days 0 3  
Month to date heating degree days 89 58  
Since 1 July heating degree days 4072 4146  
Cooling Degree Days 3 3  
Month to date cooling degree days 11 32  
Year to date cooling degree days 27 53  
Growing Degree Days 20 (Base 50)    
Moisture  
Dew Point 49 °F    
Average Humidity 54    
Maximum Humidity 83    
Minimum Humidity 25    
Precipitation  
Precipitation 0.00 in 0.06 in 3.95 in (1951)
Month to date precipitation 1.35 0.86  
Year to date precipitation 5.44 4.93  
Snow  
Snow 0.00 in 0.00 in T in (1954)
Month to date snowfall 0.0 0.2  
Since 1 July snowfall 8.1 17.8  
Snow Depth 0.00 in    
Sea Level Pressure  
Sea Level Pressure 29.89 in    
Wind  
Wind Speed 13 mph (SSW)    
Max Wind Speed 22 mph    
Max Gust Speed 27 mph    
Visibility 10 miles    
Events      
T = Trace of Precipitation, MM = Missing Value Source: NWS Daily Summary

Daily Weather History Graph

Daily Weather History Graph

Search for Another Location

Airport or City:

Astronomy

May. 15, 2019 Rise Set
Actual Time 6:42 AM CDT 8:43 PM CDT
Civil Twilight 6:14 AM CDT 9:12 PM CDT
Nautical Twilight 5:40 AM CDT 9:46 PM CDT
Astronomical Twilight 5:03 AM CDT 10:23 PM CDT
Moon 5:27 PM CDT (5/15) 4:58 AM CDT (5/15)
Length of Visible Light 14h 57m
Length of Day
14h 01m
Waxing Gibbous, 87% of the Moon is Illuminated
May 15
Waxing Gibbous
May 18
Full
May 26
Last Quarter
Jun 3
New
Jun 10
First Quarter

Hourly Weather History & Observations

Time (CDT) Temp. Dew Point Humidity Pressure Visibility Wind Dir Wind Speed Gust Speed Precip Events Conditions
12:53 AM 62.1 °F 46.9 °F 58% 29.90 in 10.0 mi South 11.5 mph - N/A   Clear
1:53 AM 57.0 °F 48.0 °F 72% 29.91 in 10.0 mi SSW 9.2 mph - N/A   Clear
2:53 AM 55.9 °F 48.0 °F 75% 29.88 in 10.0 mi SW 12.7 mph - N/A   Clear
3:53 AM 57.0 °F 48.0 °F 72% 29.88 in 10.0 mi South 10.4 mph - N/A   Clear
4:53 AM 52.0 °F 46.9 °F 83% 29.89 in 10.0 mi SW 9.2 mph - N/A   Clear
5:53 AM 54.0 °F 48.0 °F 80% 29.89 in 10.0 mi SSW 10.4 mph - N/A   Clear
6:53 AM 55.9 °F 48.9 °F 77% 29.92 in 10.0 mi SW 9.2 mph - N/A   Clear
7:53 AM 60.1 °F 48.9 °F 67% 29.93 in 10.0 mi SW 9.2 mph - N/A   Clear
8:53 AM 66.9 °F 50.0 °F 54% 29.94 in 10.0 mi SW 13.8 mph - N/A   Clear
9:53 AM 72.0 °F 53.1 °F 51% 29.94 in 10.0 mi SW 13.8 mph - N/A   Clear
10:53 AM 73.9 °F 53.1 °F 48% 29.94 in 10.0 mi SSW 15.0 mph - N/A   Clear
11:53 AM 78.1 °F 53.1 °F 42% 29.93 in 10.0 mi SSW 11.5 mph - N/A   Clear
12:53 PM 81.0 °F 48.9 °F 33% 29.91 in 10.0 mi SSW 15.0 mph 23.0 mph N/A   Clear
1:53 PM 82.9 °F 44.1 °F 25% 29.90 in 10.0 mi South 12.7 mph 21.9 mph N/A   Clear
2:53 PM 84.0 °F 45.0 °F 25% 29.88 in 10.0 mi South 17.3 mph 24.2 mph N/A   Clear
3:53 PM 84.0 °F 45.0 °F 25% 29.85 in 10.0 mi South 13.8 mph - N/A   Clear
4:53 PM 84.0 °F 44.1 °F 25% 29.84 in 10.0 mi South 11.5 mph 21.9 mph N/A   Clear
5:53 PM 82.9 °F 45.0 °F 26% 29.83 in 10.0 mi SSW 17.3 mph 21.9 mph N/A   Clear
6:53 PM 82.0 °F 45.0 °F 27% 29.82 in 10.0 mi South 13.8 mph - N/A   Clear
7:53 PM 80.1 °F 45.0 °F 29% 29.81 in 10.0 mi South 12.7 mph - N/A   Clear
8:53 PM 75.0 °F 45.0 °F 34% 29.82 in 10.0 mi SSE 9.2 mph - N/A   Clear
9:53 PM 69.1 °F 48.0 °F 47% 29.83 in 10.0 mi SSE 15.0 mph - N/A   Clear
10:53 PM 68.0 °F 50.0 °F 52% 29.85 in 10.0 mi SSE 15.0 mph - N/A   Clear
11:53 PM 68.0 °F 48.0 °F 49% 29.85 in 10.0 mi South 16.1 mph - N/A   Clear